Regional Weather Roundup
Issued by NWS Little Rock, AR

Home | Current Version | Previous Version | Text Only | Print | Product List | Glossary Off
Versions: 1 2 3 4 5 6 7 8 9 10 11 12 13 14 15 16 17 18 19 20 21 22 23 24 25 26 27 28

000
ASUS44 KLZK 231205
RWRLZK

WEATHER ROUNDUP FOR ARKANSAS
NATIONAL WEATHER SERVICE LITTLE ROCK AR
700 AM CDT SAT JUL 23 2016

NOTE: "FAIR" INDICATES FEW OR NO CLOUDS BELOW 12,000 FEET WITH NO
SIGNIFICANT WEATHER AND/OR OBSTRUCTIONS TO VISIBILITY.

ARZ001-003-010-029-231300-
NORTHWEST ARKANSAS

CITY           SKY/WX    TMP DP  RH WIND       PRES   REMARKS
FAYETTEVILLE   CLEAR     72  72 100 CALM      30.02R
6HR MIN TEMP:  70; 6HR MAX TEMP:  75;

FORT SMITH     CLEAR     79  75  87 CALM      29.97S
6HR MIN TEMP:  79; 6HR MAX TEMP:  85;

HARRISON       CLEAR     75  74  96 CALM      30.03S
6HR MIN TEMP:  73; 6HR MAX TEMP:  79;

BENTONVILLE    CLEAR     75  70  83 SE5       30.02S
6HR MIN TEMP:  75; 6HR MAX TEMP:  81;

ROGERS         CLEAR     77  74  90 SE5       30.03R
6HR MIN TEMP:  76; 6HR MAX TEMP:  79;

SILOAM SPGS    CLEAR     73  64  73 E3        30.02S
6HR MIN TEMP:  73; 6HR MAX TEMP:  77;

HIGHFILL       CLEAR     75  73  93 CALM      30.01S
6HR MIN TEMP:  74; 6HR MAX TEMP:  79;

SPRINGDALE     CLEAR     77  73  88 SE3       30.04R
$$

ARZ004-005-016-231300-
NORTH CENTRAL ARKANSAS

CITY           SKY/WX    TMP DP  RH WIND       PRES   REMARKS
BATESVILLE     CLEAR     73  72  94 CALM      29.98S
6HR MIN TEMP:  73; 6HR MAX TEMP:  75;

FLIPPIN        PTCLDY    75  72  88 CALM      29.98R
6HR MIN TEMP:  75; 6HR MAX TEMP:  81;

MTN HOME       CLEAR     77  74  90 CALM      30.00S
6HR MIN TEMP:  75; 6HR MAX TEMP:  80;

$$

ARZ040-041-231300-
WEST CENTRAL ARKANSAS

CITY           SKY/WX    TMP DP  RH WIND       PRES   REMARKS
MENA           CLEAR     77  75  94 CALM      30.02R
MOUNT IDA      CLEAR     76  75  97 CALM      29.97F FOG
6HR MIN TEMP:  75; 6HR MAX TEMP:  81;

$$

ARZ009-017-025-026-028-231300-
NORTHEAST ARKANSAS

CITY           SKY/WX    TMP DP  RH WIND       PRES   REMARKS
CORNING          N/A     77  77 100 CALM      29.99R
JONESBORO      PTCLDY    77  75  93 CALM      29.96F
6HR MIN TEMP:  76; 6HR MAX TEMP:  81;

NEWPORT        CLEAR     77  77 100 NE3       29.98S
6HR MIN TEMP:  76; 6HR MAX TEMP:  80;

WALNUT RIDGE   CLEAR     77  73  88 CALM      29.97S
6HR MIN TEMP:  75; 6HR MAX TEMP:  81;

BLYTHEVILLE    PTSUNNY   76  74  93 CALM      29.98R
6HR MIN TEMP:  75; 6HR MAX TEMP:  78;

$$

ARZ022-023-033-042-044-231300-
CENTRAL ARKANSAS

CITY           SKY/WX    TMP DP  RH WIND       PRES   REMARKS
LITTLE ROCK    PTCLDY    81  76  84 CALM      29.97S HX  87
6HR MIN TEMP:  80; 6HR MAX TEMP:  83;

JACKSONVILLE   CLEAR     77  77  99 CALM      29.97S
6HR MIN TEMP:  76; 6HR MAX TEMP:  80;

SEARCY         CLEAR     77  76  96 CALM      29.98S
6HR MIN TEMP:  76; 6HR MAX TEMP:  80;

HOT SPRINGS    CLEAR     79  74  84 CALM      29.99R
6HR MIN TEMP:  78; 6HR MAX TEMP:  83;

RUSSELLVILLE   CLEAR     79  77  94 CALM      29.97S
6HR MIN TEMP:  77; 6HR MAX TEMP:  81;

$$

ARZ036-231300-
EAST ARKANSAS

CITY           SKY/WX    TMP DP  RH WIND       PRES   REMARKS
WEST MEMPHIS   CLOUDY    77  75  93 S3        29.97R
6HR MIN TEMP:  76; 6HR MAX TEMP:  81;

$$

ARZ050-053-066-070-073-231300-
SOUTHWEST ARKANSAS

CITY           SKY/WX    TMP DP  RH WIND       PRES   REMARKS
CAMDEN         CLEAR     77  73  88 CALM      29.98R FOG
TEXARKANA      CLEAR     78  74  87 CALM      29.98R
6HR MIN TEMP:  77; 6HR MAX TEMP:  84;

EL DORADO      CLEAR     76  75  97 CALM      29.99R FOG
6HR MIN TEMP:  76; 6HR MAX TEMP:  79;

DE QUEEN       CLEAR     75  75 100 CALM      29.96R FOG
6HR MIN TEMP:  75; 6HR MAX TEMP:  83;

$$

ARZ056-057-069-231300-
SOUTHEAST ARKANSAS

CITY           SKY/WX    TMP DP  RH WIND       PRES   REMARKS
PINE BLUFF     CLEAR     77  76  96 S3        29.98R FOG
6HR MIN TEMP:  76; 6HR MAX TEMP:  81;

STUTTGART      CLEAR     81  73  78 S5        29.98S HX  85
6HR MIN TEMP:  79; 6HR MAX TEMP:  82;

MONTICELLO     CLEAR     77  75  93 CALM      29.99R
6HR MIN TEMP:  77; 6HR MAX TEMP:  80;


$$






USA.gov is the U.S. government's official web portal to all federal, state and local government web resources and services.